Theta_e
326 326 325 324 323 317 316 318 317 312 310 316 319 321 323 323 324 325 325 319 319 316 315 315 316 315 316 318 315 312 310 308 306 306 305 305 305 304
329 329 327 326 322 322 316 316 321 315 310 316 315 320 323 323 324 324 323 320 317 315 314 313 313 314 314 315 311 311 307 305 304 304 303 302 301 301
332 330 329 330 328 324 321 318 317 316 311 315 317 324 326 326 326 327 325 326 318 314 313 311 310 312 312 310 310 309 306 304 302 301 300 299 299 299
328 329 328 327 328 326 322 321 318 320 314 315 319 319 321 322 324 323 319 318 316 310 310 309 309 310 308 305 305 307 304 304 302 300 298 298 298 299
329 329 327 328 325 323 323 319 320 319 321 317 315 316 316 317 318 316 315 315 311 308 308 308 308 308 309 306 304 303 302 301 300 300 298 298 298 299
326 326 326 327 326 325 323 323 322 321 321 317 315 314 315 314 318 313 310 312 310 307 305 306 305 305 305 306 303 302 300 299 298 299 300 300 299 298
321 319 320 317 314 317 323 324 324 320 318 317 316 315 313 312 314 315 313 310 310 310 306 304 303 304 305 304 304 303 300 299 299 300 300 299 298 298
320 319 318 314 309 306 309 311 321 324 322 318 317 316 318 316 315 313 313 308 307 311 307 304 303 302 304 305 304 302 301 301 300 300 299 298 297 296
321 319 314 312 315 316 304 303 303 303 309 324 322 320 320 318 317 314 313 312 312 311 308 305 303 301 303 302 301 301 301 300 299 299 298 297 296 295
317 317 318 316 313 315 317 317 316 316 317 316 322 324 322 322 318 318 316 314 312 309 309 304 307 301 303 303 299 300 299 298 298 298 297 296 295 294
309 309 311 310 297 296 314 314 313 312 297 296 296 294 295 297 307 311 309 307 306 306 307 305 306 304 303 302 303 298 298 297 296 296 296 296 294 293
307 307 296 304 294 294 311 311 309 311 308 305 307 303 298 303 297 312 311 305 304 303 308 302 303 303 300 303 303 303 301 296 296 295 294 294 293 297
306 307 307 293 293 292 296 309 308 308 303 306 305 305 305 307 306 307 310 307 303 303 307 305 303 303 301 300 302 303 303 301 300 297 293 293 293 292
314 313 312 294 292 292 294 297 293 294 307 305 304 304 303 303 305 307 309 309 308 307 309 306 302 301 300 298 297 300 300 302 301 298 298 296 293 293
317 309 300 294 293 294 292 294 290 303 308 307 306 306 306 305 306 305 307 308 309 308 305 307 304 304 301 299 298 300 297 299 299 297 297 296 296 297
300 309 304 302 299 301 303 302 307 310 308 308 307 307 305 304 303 304 302 302 301 301 306 307 306 305 300 300 300 299 301 296 299 297 296 297 296 296
309 312 311 310 310 311 312 311 309 308 306 306 304 305 304 305 305 305 302 300 300 301 302 304 304 302 303 304 300 300 300 298 296 296 295 295 296 296
307 312 313 311 309 314 315 316 315 307 308 306 305 305 303 301 300 303 302 301 300 302 303 303 301 298 299 302 302 299 299 297 297 295 295 294 295 296
312 308 307 309 311 313 313 314 312 310 307 302 302 299 299 301 299 300 299 300 299 300 300 299 299 298 295 294 300 296 295 296 295 294 295 294 293 294
313 313 314 316 315 313 311 308 306 303 300 299 300 301 301 300 299 299 299 299 298 299 298 299 299 297 294 296 296 301 290 295 294 293 294 294 294 291
315 312 310 311 309 304 303 303 299 298 299 299 300 301 301 301 300 300 300 291 292 297 297 298 300 289 300 301 296 294 293 291 295 294 294 293 292 293
310 304 303 302 299 299 296 298 300 299 300 301 302 301 302 302 301 301 300 298 298 299 300 301 300 299 296 292 290 292 291 292 292 292 292 292 293 290
299 299 300 298 296 296 298 298 298 298 300 300 299 299 300 300 301 299 299 301 300 299 297 295 296 296 294 292 289 289 289 290 291 293 295 294 292 292
Wind_Speed
6 8 9 6 6 4 4 6 5 8 5 5 5 4 5 6 8 7 8 10 10 9 9 9 9 10 10 11 12 12 10 10 9 7 7 6 6 6
7 9 8 7 8 7 4 3 4 6 6 6 4 7 6 5 6 7 7 9 9 9 10 9 8 9 11 11 12 11 11 9 8 7 5 4 4 5
9 10 11 10 8 7 7 4 5 6 10 5 7 6 5 5 5 5 7 7 8 9 9 9 9 10 12 12 11 10 9 9 7 6 4 4 4 5
7 8 10 8 8 8 6 4 5 5 9 12 8 5 4 4 4 5 5 5 8 9 10 9 9 10 12 11 9 9 9 8 7 5 3 3 4 6
8 9 10 9 7 6 5 5 6 6 9 10 8 3 3 4 4 4 5 6 6 10 7 6 7 8 10 9 8 8 7 7 7 5 2 2 4 6
8 8 8 8 9 9 7 6 7 8 7 8 6 5 4 4 5 7 6 5 5 7 3 3 6 8 8 10 10 9 8 8 7 4 3 4 5 5
9 8 7 8 9 6 4 6 8 7 7 7 6 5 6 6 9 6 7 6 6 6 7 7 7 7 7 9 12 11 10 9 7 6 5 5 5 5
8 7 7 8 8 7 7 4 6 9 8 7 7 8 9 8 6 7 7 7 7 9 9 9 8 8 8 9 12 12 11 8 8 7 6 5 6 7
6 6 5 4 5 7 8 9 8 3 2 6 7 8 7 9 9 9 10 9 9 4 10 9 9 10 8 8 10 10 10 11 11 10 8 8 8 9
4 4 4 5 4 5 5 5 4 3 2 3 5 5 7 5 10 7 9 9 5 6 9 9 9 11 9 9 14 13 12 10 11 10 9 10 8 9
3 3 4 5 5 2 6 6 4 4 4 3 2 4 6 5 8 7 8 9 9 8 9 8 7 10 10 11 11 16 13 12 12 10 9 11 9 12
5 5 2 3 9 6 4 4 4 4 5 4 4 3 4 5 8 11 7 9 9 7 9 9 10 7 8 12 11 11 11 12 11 11 11 11 9 8
5 5 5 8 8 8 6 6 5 4 4 6 6 5 5 6 6 9 10 10 10 11 4 10 7 9 11 7 8 10 11 9 9 9 13 12 10 8
5 4 5 13 13 12 9 8 7 6 6 6 7 7 7 7 8 9 12 12 11 12 4 11 8 11 11 10 10 8 10 10 8 8 7 6 12 15
5 2 5 11 10 9 11 5 7 7 8 8 8 8 7 7 7 8 11 12 13 14 11 13 12 12 12 12 11 9 8 10 10 9 7 6 5 6
3 6 3 3 5 5 2 8 8 7 7 8 9 8 8 7 8 8 9 9 10 12 15 16 15 14 12 12 12 11 11 9 8 7 6 6 6 5
7 6 6 5 5 5 5 4 5 5 6 5 6 8 9 9 8 7 8 8 11 12 11 11 12 12 13 15 13 13 12 10 7 5 8 7 7 6
5 6 4 3 4 4 4 2 2 2 3 4 4 7 7 7 8 8 8 8 11 11 12 9 5 7 11 16 17 14 11 10 6 7 9 8 9 6
3 2 1 2 3 3 3 4 3 3 3 2 4 5 6 6 6 7 7 8 10 10 10 8 10 11 13 16 10 15 9 9 7 9 9 9 10 8
2 1 0 2 2 4 4 5 4 3 2 4 3 5 5 6 7 8 8 9 9 10 10 9 8 7 11 12 12 11 16 7 6 8 8 7 7 9
3 5 4 5 4 4 6 6 4 4 6 5 5 5 5 6 7 8 8 6 8 9 11 10 8 5 8 6 7 4 3 9 9 8 6 8 9 9
9 1 9 8 5 5 7 4 4 6 5 5 6 6 6 6 7 8 8 9 8 9 9 8 5 5 3 4 10 12 3 5 9 15 16 12 8 8
8 10 9 7 5 9 5 1 4 5 6 6 6 6 6 6 7 6 6 7 9 9 9 8 7 8 9 8 9 6 5 3 2 5 8 12 19 23
Wind_Direction
115 131 126 125 120 96 113 146 135 152 125 162 151 169 148 149 151 166 153 148 143 148 141 145 142 133 129 129 124 116 112 103 93 82 65 49 32 16
146 149 138 138 140 155 140 142 120 120 132 165 138 140 151 146 142 162 157 160 148 150 150 138 134 135 142 136 128 124 117 112 102 87 77 62 34 13
147 157 146 149 153 150 160 131 141 150 143 133 138 138 127 143 138 155 160 174 155 139 129 135 137 138 147 141 145 141 134 134 123 113 112 75 27 341
136 146 140 145 148 155 159 131 148 144 146 140 135 142 117 120 129 138 144 141 154 137 141 144 146 148 147 141 150 156 155 148 137 147 117 69 10 330
148 146 136 145 145 138 141 145 151 149 152 158 150 153 100 153 143 128 136 139 165 131 113 125 139 145 165 162 158 164 170 170 172 169 100 31 311 297
116 121 131 158 158 159 150 157 143 148 151 154 151 149 169 157 194 177 175 181 167 181 116 95 179 168 178 179 175 176 182 188 186 171 202 244 267 270
92 88 71 68 60 80 145 171 158 173 168 172 171 181 182 179 200 186 202 183 193 205 200 195 193 196 190 201 192 192 194 200 196 201 217 231 240 247
107 96 101 107 85 98 112 127 165 171 184 194 194 210 203 207 189 195 197 203 219 197 212 211 212 211 207 208 192 197 204 209 208 209 222 230 221 254
124 136 143 122 146 121 92 94 75 40 342 212 212 215 211 208 197 201 208 218 229 152 213 230 203 228 215 207 187 211 218 216 210 209 219 218 221 257
153 156 136 128 88 127 140 131 124 107 104 223 237 241 237 207 205 221 224 233 246 221 214 244 201 229 212 219 186 210 216 215 212 213 220 211 238 267
152 154 148 143 125 178 156 148 154 173 121 35 344 324 292 247 224 199 209 212 234 229 194 246 224 233 216 221 207 208 214 211 211 212 216 213 253 267
180 170 201 180 164 182 160 171 200 215 213 226 231 229 227 206 219 227 231 230 238 254 196 217 225 214 227 219 222 205 215 214 209 211 207 222 234 270
176 183 194 188 190 194 218 200 215 183 201 235 236 231 226 222 216 220 234 239 243 245 168 210 226 219 244 251 217 216 212 208 218 207 215 230 238 256
201 192 177 182 199 205 206 231 201 205 237 236 242 243 241 239 237 233 233 235 242 255 256 225 252 233 234 240 239 196 224 224 225 232 223 213 223 228
245 213 183 189 200 216 235 244 187 230 250 252 259 262 252 251 261 255 246 249 247 246 236 230 242 243 240 244 248 233 219 217 212 217 220 231 260 276
177 211 222 242 240 305 233 204 236 255 274 281 289 307 303 291 279 268 267 264 251 256 231 233 234 237 243 241 245 247 232 236 201 216 221 245 246 255
201 231 230 228 247 248 245 250 265 256 260 280 293 298 290 283 284 283 272 272 266 271 269 245 216 233 239 251 249 243 252 229 226 219 232 248 255 242
207 244 255 260 263 284 291 306 315 286 317 290 288 289 298 306 306 302 288 272 276 276 276 271 229 218 239 241 239 259 254 225 236 234 243 263 273 253
231 113 10 345 316 324 302 332 320 329 352 292 326 302 286 309 303 296 287 287 290 292 290 280 264 251 256 265 271 218 233 235 220 244 244 250 269 270
214 234 59 6 15 29 23 6 5 13 11 18 326 342 326 314 317 314 311 308 297 297 300 287 279 250 251 259 268 246 210 217 210 235 252 253 255 260
105 82 55 70 56 50 71 45 316 16 37 7 350 338 331 320 316 314 315 312 303 303 306 306 334 342 292 298 274 280 236 216 215 238 242 261 269 276
95 87 99 82 75 85 61 353 12 32 23 19 353 340 334 326 329 333 336 333 322 317 317 328 0 329 318 266 275 274 259 231 215 235 253 268 276 280
101 89 84 86 63 69 44 94 47 5 30 15 357 357 347 344 347 338 327 334 342 339 350 326 312 312 297 289 280 268 223 210 233 245 262 239 234 245